Regional Weather Roundup
Issued by NWS Glasgow, MT

Home | Current Version | Previous Version | Text Only | Print | Product List | Glossary On
Versions: 1 2 3 4 5 6 7 8 9 10 11 12 13 14 15 16 17 18 19 20 21 22 23 24 25 26 27 28 29 30 31 32 33 34 35 36 37 38 39 40 41 42 43 44 45 46 47 48 49 50
000
ASUS45 KGGW 011215
RWRGGW
HOURLY WEATHER ROUNDUP FOR NORTHEAST MONTANA
NATIONAL WEATHER SERVICE GLASGOW MONTANA
600 AM MDT FRI AUG 01 2014

NOTE: "FAIR" INDICATES FEW OR NO CLOUDS BELOW 12,000 FEET WITH NO
SIGNIFICANT WEATHER AND/OR OBSTRUCTIONS TO VISISBILITY.

NORTHEAST MONTANA


CITY           SKY/WX    TMP DP  RH WIND       PRES   REMARKS
GLASGOW        PTCLDY    64  56  75 CALM      30.03R
6HR MIN TEMP:  63; 6HR MAX TEMP:  76;

PLENTYWOOD       N/A     65  59  81 N8          N/A
WOLF POINT     CLOUDY    70  57  63 E12       30.02S
JORDAN           N/A     59  43  55 W6        30.05R
WINNETT          N/A     56  44  64 SW3         N/A
SIDNEY         PTCLDY    61  55  82 N7        30.02S
GLENDIVE       CLOUDY    64  54  68 NE3       30.03R
MALTA            N/A    N/A N/A N/A N2          N/A

FORT PECK REPORTS


CITY           SKY/WX    TMP DP  RH WIND       PRES   REMARKS
FORT PECK        N/A     69  57  65 NE10        N/A
THE PINES        N/A     66  57  72 N3          N/A

SOUTHEAST MONTANA


CITY           SKY/WX    TMP DP  RH WIND       PRES   REMARKS
BILLINGS       MOCLDY    66  43  43 SW13      30.13S
MILES CITY     PTCLDY    59  42  53 NW7       30.02R
BAKER          MOCLDY    53  48  83 SE3       30.05S
LIVINGSTON     CLEAR     53  41  63 NW7       30.22R

CENTRAL MONTANA


CITY           SKY/WX    TMP DP  RH WIND       PRES   REMARKS
HAVRE          CLEAR     52  45  77 CALM      30.09R
LEWISTOWN      PTCLDY    55  43  63 SE9       30.17S
GREAT FALLS    CLEAR     54  43  66 W7        30.15R
CUT BANK       MOCLDY    58  54  86 NW8       30.18S
HELENA         PTCLDY    59  40  49 CALM      30.17S
BUTTE          PTCLDY    50  38  63 SE6       30.29R
BOZEMAN        CLEAR     48  43  82 SE8       30.22R

WESTERN MONTANA


CITY           SKY/WX    TMP DP  RH WIND       PRES   REMARKS
MISSOULA       MOCLDY    60  42  51 CALM      30.14S
KALISPELL      NOT AVBL

NORTH DAKOTA


CITY           SKY/WX    TMP DP  RH WIND       PRES   REMARKS
WILLISTON      PTCLDY    66  56  70 NE3       30.05R
DICKINSON      CLEAR     58  54  86 S10       30.03S
MINOT          CLEAR     57  54  89 SW5       30.06S
BISMARCK       CLEAR     58  55  90 NE8       30.07S

SOUTHERN SASKATCHEWAN


CITY           SKY/WX    TMP DP  RH WIND       PRES   REMARKS
REGINA         MOCLDY    61  57  88 E8        30.09R
MOOSE JAW      MOCLDY    61  59  94 E2        30.07R
ESTEVAN        MOCLDY    57  55  94 E3        30.10R
SWIFT CURRENT  CLEAR     55  52  88 W10       30.11R




USA.gov is the U.S. government's official web portal to all federal, state and local government web resources and services.